Location: Fayetteville
(35.0530°N, 78.8790°W)
Time: 03:16:39
(UTC-04:00)

ISS - Visible Passes

Search period start: 18 April 2015 00:00
Search period end: 28 April 2015 00:00
Orbit: 395 x 404 km, 51.6° (Epoch: 17 April)

Date Brightness Start Highest point End Pass type
(mag) Time Alt. Az. Time Alt. Az. Time Alt. Az.
18 Apr -1.4 21:22:49 10° NNW 21:25:17 20° NNE 21:25:26 20° NE visible
19 Apr -0.8 20:29:43 10° N 20:31:09 12° NNE 20:32:40 10° NE visible
19 Apr -1.2 22:04:42 10° NW 22:06:19 27° NW 22:06:19 27° NW visible
20 Apr -2.6 21:10:55 10° NW 21:14:01 40° NE 21:14:40 36° ENE visible
21 Apr -1.6 20:17:20 10° NNW 20:19:56 22° NNE 20:22:34 10° E visible
21 Apr -1.6 21:53:24 10° WNW 21:55:36 28° WSW 21:55:36 28° WSW visible
22 Apr -3.3 20:59:11 10° NW 21:02:27 76° SW 21:04:01 27° SE visible
23 Apr -0.7 21:42:53 10° W 21:44:28 13° SW 21:45:01 12° SW visible
24 Apr -1.6 20:47:42 10° WNW 20:50:33 28° SW 20:53:21 10° SSE visible
26 Apr -0.4 20:37:15 10° WSW 20:38:24 11° SW 20:39:25 10° SW visible
